UAL636 CYYZ-KIAD

Flight info

Callsign UAL636
Flight time 0h 54m
Altitude 35000
Route RIGUS5 PSB WAYNZ1
Aircraft A320/M-SDE3FGHIRWY/LB1

Departure

Time 2026-05-06 23:53
Airport Toronto Pearson International Airport (CYYZ)

Arrival

Time 2026-05-07 00:48
Airport Washington Dulles International Airport (KIAD)
Time Latitude Longitude Altitude Speed Heading
2026-05-06 23:28 43.67847 -79.61240 570 ft 0 kts 91°
2026-05-06 23:41 43.67847 -79.61258 571 ft 3 kts 91°
2026-05-06 23:41 43.67848 -79.61282 565 ft 2 kts 91°
2026-05-06 23:42 43.67848 -79.61306 571 ft 2 kts 91°
2026-05-06 23:42 43.67849 -79.61329 571 ft 2 kts 91°
2026-05-06 23:42 43.67849 -79.61353 571 ft 2 kts 91°
2026-05-06 23:42 43.67849 -79.61376 571 ft 2 kts 91°
2026-05-06 23:43 43.67850 -79.61399 571 ft 2 kts 91°
2026-05-06 23:43 43.67850 -79.61408 571 ft 0 kts 91°
2026-05-06 23:44 43.67849 -79.61401 571 ft 2 kts 105°
2026-05-06 23:44 43.67834 -79.61398 566 ft 4 kts 187°
2026-05-06 23:44 43.67795 -79.61444 561 ft 9 kts 227°
2026-05-06 23:45 43.67746 -79.61516 565 ft 12 kts 226°
2026-05-06 23:45 43.67686 -79.61605 563 ft 14 kts 227°
2026-05-06 23:45 43.67610 -79.61698 568 ft 15 kts 218°
2026-05-06 23:45 43.67556 -79.61744 566 ft 8 kts 187°
2026-05-06 23:46 43.67510 -79.61702 568 ft 9 kts 136°
2026-05-06 23:46 43.67454 -79.61629 565 ft 12 kts 136°
2026-05-06 23:46 43.67386 -79.61540 565 ft 15 kts 136°
2026-05-06 23:46 43.67314 -79.61447 564 ft 15 kts 136°
2026-05-06 23:47 43.67253 -79.61367 564 ft 0 kts 136°
2026-05-06 23:47 43.67243 -79.61354 567 ft 5 kts 137°
2026-05-06 23:48 43.67190 -79.61347 565 ft 10 kts 206°
2026-05-06 23:48 43.67127 -79.61431 570 ft 15 kts 223°
2026-05-06 23:48 43.67034 -79.61548 567 ft 18 kts 222°
2026-05-06 23:48 43.66930 -79.61679 569 ft 22 kts 222°
2026-05-06 23:49 43.66814 -79.61826 568 ft 22 kts 222°
2026-05-06 23:49 43.66699 -79.61968 568 ft 23 kts 222°
2026-05-06 23:49 43.66573 -79.62128 565 ft 26 kts 222°
2026-05-06 23:49 43.66432 -79.62306 563 ft 29 kts 222°
2026-05-06 23:50 43.66319 -79.62441 559 ft 18 kts 211°
2026-05-06 23:50 43.66242 -79.62384 559 ft 0 kts 141°
2026-05-06 23:50 43.66241 -79.62383 559 ft 0 kts 141°
2026-05-06 23:51 43.66230 -79.62370 560 ft 4 kts 137°
2026-05-06 23:51 43.66199 -79.62329 562 ft 9 kts 137°
2026-05-06 23:51 43.66173 -79.62256 571 ft 8 kts 84°
2026-05-06 23:51 43.66206 -79.62193 567 ft 7 kts 47°
2026-05-06 23:52 43.66216 -79.62179 570 ft 4 kts 46°
2026-05-06 23:52 43.66409 -79.61903 567 ft 74 kts 46°
2026-05-06 23:52 43.66898 -79.61193 568 ft 126 kts 46°
2026-05-06 23:52 43.67631 -79.60212 598 ft 163 kts 36°
2026-05-06 23:53 43.68499 -79.59100 989 ft 174 kts 43°
2026-05-06 23:53 43.69364 -79.57796 1681 ft 177 kts 45°
2026-05-06 23:53 43.70067 -79.56473 2257 ft 186 kts 62°
2026-05-06 23:53 43.70171 -79.54590 2482 ft 215 kts 103°
2026-05-06 23:54 43.69681 -79.52513 2808 ft 240 kts 108°
2026-05-06 23:54 43.69087 -79.50229 3218 ft 263 kts 109°
2026-05-06 23:54 43.68453 -79.47797 3964 ft 273 kts 109°
2026-05-06 23:54 43.67809 -79.45304 4726 ft 280 kts 110°
2026-05-06 23:55 43.66843 -79.42972 4959 ft 281 kts 132°
2026-05-06 23:55 43.65353 -79.41289 5016 ft 275 kts 154°
2026-05-06 23:55 43.63593 -79.40472 5011 ft 269 kts 175°
2026-05-06 23:55 43.61740 -79.40544 5135 ft 268 kts 196°
2026-05-06 23:56 43.60021 -79.41479 6070 ft 264 kts 210°
2026-05-06 23:56 43.58391 -79.42626 7051 ft 263 kts 211°
2026-05-06 23:56 43.56758 -79.43774 7955 ft 264 kts 212°
2026-05-06 23:56 43.55138 -79.44965 8831 ft 263 kts 218°
2026-05-06 23:57 43.53674 -79.46467 9663 ft 263 kts 223°
2026-05-06 23:57 43.52215 -79.48024 10342 ft 271 kts 223°
2026-05-06 23:57 43.50665 -79.49686 10556 ft 293 kts 223°
2026-05-06 23:57 43.48938 -79.51314 11009 ft 309 kts 213°
2026-05-06 23:58 43.46985 -79.52620 11688 ft 314 kts 211°
2026-05-06 23:58 43.45008 -79.53921 12405 ft 316 kts 211°
2026-05-06 23:58 43.43018 -79.55235 13154 ft 318 kts 211°
2026-05-06 23:58 43.41018 -79.56556 13881 ft 320 kts 211°
2026-05-06 23:59 43.39005 -79.57888 14537 ft 321 kts 211°
2026-05-06 23:59 43.36987 -79.59224 15194 ft 323 kts 211°
2026-05-06 23:59 43.34957 -79.60566 15836 ft 324 kts 211°
2026-05-06 23:59 43.32918 -79.61910 16484 ft 326 kts 211°
2026-05-07 00:00 43.30874 -79.63257 17158 ft 327 kts 211°
2026-05-07 00:00 43.28819 -79.64609 17845 ft 328 kts 211°
2026-05-07 00:00 43.26752 -79.65966 18494 ft 329 kts 210°
2026-05-07 00:00 43.25322 -79.66713 18875 ft 336 kts 203°
2026-05-07 00:01 43.22170 -79.67359 19602 ft 352 kts 188°
2026-05-07 00:01 43.19696 -79.67326 20135 ft 357 kts 187°
2026-05-07 00:01 43.17229 -79.67282 20652 ft 361 kts 187°
2026-05-07 00:01 43.14675 -79.67234 21118 ft 365 kts 187°
2026-05-07 00:02 43.12118 -79.67191 21586 ft 369 kts 187°
2026-05-07 00:02 43.09566 -79.67156 22061 ft 373 kts 187°
2026-05-07 00:02 43.06955 -79.67127 22548 ft 377 kts 187°
2026-05-07 00:02 43.04322 -79.67099 23050 ft 381 kts 187°
2026-05-07 00:03 43.01653 -79.67069 23537 ft 384 kts 187°
2026-05-07 00:03 42.98968 -79.67036 23951 ft 388 kts 187°
2026-05-07 00:03 42.96254 -79.66998 24364 ft 390 kts 187°
2026-05-07 00:03 42.93542 -79.66958 24846 ft 390 kts 188°
2026-05-07 00:04 42.90816 -79.66917 25313 ft 391 kts 189°
2026-05-07 00:04 42.88095 -79.66874 25747 ft 392 kts 189°
2026-05-07 00:04 42.85372 -79.66918 26161 ft 388 kts 195°
2026-05-07 00:04 42.82680 -79.67210 26572 ft 389 kts 195°
2026-05-07 00:05 42.80884 -79.67407 26842 ft 390 kts 196°
2026-05-07 00:05 42.78173 -79.67701 27245 ft 392 kts 196°
2026-05-07 00:05 42.75454 -79.67997 27608 ft 393 kts 198°
2026-05-07 00:05 42.72726 -79.68294 28086 ft 392 kts 198°
2026-05-07 00:06 42.70002 -79.68591 28527 ft 393 kts 199°
2026-05-07 00:06 42.67274 -79.68888 28941 ft 394 kts 199°
2026-05-07 00:06 42.64538 -79.69188 29341 ft 395 kts 200°
2026-05-07 00:06 42.61785 -79.69491 29734 ft 396 kts 200°
2026-05-07 00:07 42.59027 -79.69792 30102 ft 398 kts 200°
2026-05-07 00:07 42.56267 -79.70090 30407 ft 400 kts 200°
2026-05-07 00:07 42.53487 -79.70386 30670 ft 401 kts 201°
2026-05-07 00:07 42.50710 -79.70678 31090 ft 399 kts 201°
2026-05-07 00:08 42.47950 -79.70967 31513 ft 397 kts 201°
2026-05-07 00:08 42.45201 -79.71256 31912 ft 396 kts 201°
2026-05-07 00:08 42.42459 -79.71548 32304 ft 395 kts 202°
2026-05-07 00:08 42.39724 -79.71844 32703 ft 394 kts 202°
2026-05-07 00:09 42.36983 -79.72123 33098 ft 399 kts 199°
2026-05-07 00:09 42.34130 -79.71897 33491 ft 424 kts 188°
2026-05-07 00:09 42.31217 -79.70830 33875 ft 455 kts 175°
2026-05-07 00:09 42.28295 -79.68696 34204 ft 490 kts 160°
2026-05-07 00:10 42.25654 -79.65577 34506 ft 511 kts 150°
2026-05-07 00:10 42.23096 -79.62249 34809 ft 511 kts 150°
2026-05-07 00:10 42.20528 -79.58925 34960 ft 511 kts 150°
2026-05-07 00:10 42.17988 -79.55661 34985 ft 510 kts 151°
2026-05-07 00:11 42.12844 -79.49122 34935 ft 508 kts 152°
2026-05-07 00:11 42.07667 -79.42599 34951 ft 510 kts 152°
2026-05-07 00:12 42.02478 -79.36048 34979 ft 512 kts 152°
2026-05-07 00:12 41.97289 -79.29483 34983 ft 513 kts 152°
2026-05-07 00:13 41.92086 -79.22915 34989 ft 513 kts 152°
2026-05-07 00:13 41.86876 -79.16366 34956 ft 514 kts 152°
2026-05-07 00:14 41.81646 -79.09809 34961 ft 515 kts 152°
2026-05-07 00:14 41.76400 -79.03255 34940 ft 515 kts 152°
2026-05-07 00:15 41.71093 -78.96651 34973 ft 526 kts 152°
2026-05-07 00:15 41.65687 -78.89954 34922 ft 537 kts 151°
2026-05-07 00:16 41.60203 -78.83113 34958 ft 541 kts 151°
2026-05-07 00:16 41.54697 -78.76238 34961 ft 541 kts 151°
2026-05-07 00:17 41.49179 -78.69417 34961 ft 540 kts 152°
2026-05-07 00:17 41.43649 -78.62633 34941 ft 540 kts 151°
2026-05-07 00:18 41.38113 -78.55840 34957 ft 543 kts 151°
2026-05-07 00:18 41.32607 -78.49056 34753 ft 530 kts 151°
2026-05-07 00:19 41.29941 -78.45752 34516 ft 520 kts 152°
2026-05-07 00:19 41.27300 -78.42497 34282 ft 514 kts 152°
2026-05-07 00:19 41.24678 -78.39290 34045 ft 510 kts 152°
2026-05-07 00:19 41.22067 -78.36118 33806 ft 508 kts 153°
2026-05-07 00:20 41.19465 -78.32971 33540 ft 505 kts 153°
2026-05-07 00:20 41.16870 -78.29838 33204 ft 502 kts 152°
2026-05-07 00:20 41.14303 -78.26724 32943 ft 499 kts 152°
2026-05-07 00:20 41.11750 -78.23620 32520 ft 496 kts 152°
2026-05-07 00:21 41.09205 -78.20524 31936 ft 495 kts 152°
2026-05-07 00:21 41.06668 -78.17442 31386 ft 494 kts 152°
2026-05-07 00:21 41.04140 -78.14373 30834 ft 493 kts 152°
2026-05-07 00:21 41.01615 -78.11315 30280 ft 491 kts 152°
2026-05-07 00:22 40.99093 -78.08266 29687 ft 490 kts 152°
2026-05-07 00:22 40.96619 -78.05273 29182 ft 486 kts 152°
2026-05-07 00:22 40.94089 -78.02392 28674 ft 468 kts 159°
2026-05-07 00:22 40.91426 -78.00154 28302 ft 441 kts 169°
2026-05-07 00:23 40.88708 -77.98558 27914 ft 415 kts 178°
2026-05-07 00:23 40.86007 -77.97555 27553 ft 393 kts 185°
2026-05-07 00:23 40.83356 -77.96788 27203 ft 388 kts 185°
2026-05-07 00:23 40.80732 -77.96021 26859 ft 383 kts 185°
2026-05-07 00:24 40.78135 -77.95260 26507 ft 379 kts 185°
2026-05-07 00:24 40.75574 -77.94508 26169 ft 376 kts 185°
2026-05-07 00:24 40.73034 -77.93762 25833 ft 372 kts 185°
2026-05-07 00:24 40.70515 -77.93019 25425 ft 369 kts 184°
2026-05-07 00:25 40.68026 -77.92279 25132 ft 365 kts 184°
2026-05-07 00:25 40.65552 -77.91545 24790 ft 362 kts 184°
2026-05-07 00:25 40.63107 -77.90827 24431 ft 359 kts 185°
2026-05-07 00:25 40.60678 -77.90119 24082 ft 356 kts 185°
2026-05-07 00:26 40.58267 -77.89415 23729 ft 354 kts 184°
2026-05-07 00:26 40.55873 -77.88714 23338 ft 351 kts 184°
2026-05-07 00:26 40.53501 -77.88016 22957 ft 347 kts 184°
2026-05-07 00:26 40.51153 -77.87328 22562 ft 344 kts 184°
2026-05-07 00:27 40.48824 -77.86654 22112 ft 341 kts 184°
2026-05-07 00:27 40.46515 -77.85986 21755 ft 338 kts 183°
2026-05-07 00:27 40.44227 -77.85321 21362 ft 336 kts 183°
2026-05-07 00:27 40.41950 -77.84657 20966 ft 334 kts 182°
2026-05-07 00:28 40.39686 -77.83996 20579 ft 333 kts 182°
2026-05-07 00:28 40.37458 -77.83351 20192 ft 331 kts 182°
2026-05-07 00:28 40.35207 -77.82700 19801 ft 331 kts 181°
2026-05-07 00:28 40.32962 -77.82046 19406 ft 331 kts 181°
2026-05-07 00:29 40.30710 -77.81391 19011 ft 332 kts 181°
2026-05-07 00:29 40.28456 -77.80734 18605 ft 332 kts 181°
2026-05-07 00:30 40.21739 -77.78776 17496 ft 326 kts 180°
2026-05-07 00:30 40.19536 -77.78136 17118 ft 324 kts 180°
2026-05-07 00:30 40.17331 -77.77499 16718 ft 324 kts 180°
2026-05-07 00:30 40.15134 -77.76862 16326 ft 323 kts 179°
2026-05-07 00:31 40.12941 -77.76229 15938 ft 322 kts 179°
2026-05-07 00:31 40.10750 -77.75601 15545 ft 322 kts 179°
2026-05-07 00:31 40.08558 -77.74972 15151 ft 323 kts 179°
2026-05-07 00:31 40.06363 -77.74342 14763 ft 322 kts 179°
2026-05-07 00:32 40.04174 -77.73709 14365 ft 321 kts 178°
2026-05-07 00:32 40.02003 -77.73077 13976 ft 319 kts 178°
2026-05-07 00:32 39.99835 -77.72449 13571 ft 318 kts 178°
2026-05-07 00:32 39.97707 -77.71835 13172 ft 316 kts 178°
2026-05-07 00:33 39.95561 -77.71219 12784 ft 314 kts 178°
2026-05-07 00:33 39.93429 -77.70607 12394 ft 312 kts 178°
2026-05-07 00:33 39.91312 -77.69999 12017 ft 311 kts 178°
2026-05-07 00:33 39.89223 -77.69395 11775 ft 304 kts 178°
2026-05-07 00:34 39.87175 -77.68798 11548 ft 299 kts 178°
2026-05-07 00:34 39.85149 -77.68209 11312 ft 297 kts 178°
2026-05-07 00:34 39.83137 -77.67631 11082 ft 296 kts 178°
2026-05-07 00:34 39.81128 -77.67059 10825 ft 294 kts 178°
2026-05-07 00:35 39.79136 -77.66492 10614 ft 293 kts 178°
2026-05-07 00:35 39.77146 -77.65927 10387 ft 292 kts 178°
2026-05-07 00:35 39.75173 -77.65369 10166 ft 288 kts 178°
2026-05-07 00:35 39.73239 -77.64833 10059 ft 281 kts 179°
2026-05-07 00:36 39.71320 -77.64363 9998 ft 280 kts 180°
2026-05-07 00:36 39.69400 -77.63922 9933 ft 280 kts 181°
2026-05-07 00:36 39.67479 -77.63484 9882 ft 280 kts 181°
2026-05-07 00:36 39.65560 -77.63039 9823 ft 280 kts 180°
2026-05-07 00:37 39.63647 -77.62588 9757 ft 279 kts 180°
2026-05-07 00:37 39.61737 -77.62134 9693 ft 279 kts 180°
2026-05-07 00:37 39.59833 -77.61677 9519 ft 278 kts 180°
2026-05-07 00:37 39.57930 -77.61221 9426 ft 278 kts 180°
2026-05-07 00:38 39.56021 -77.60767 9403 ft 279 kts 180°
2026-05-07 00:38 39.54141 -77.60318 9382 ft 279 kts 179°
2026-05-07 00:38 39.52233 -77.59862 9337 ft 278 kts 179°
2026-05-07 00:38 39.50326 -77.59407 9311 ft 279 kts 179°
2026-05-07 00:39 39.48414 -77.58949 9277 ft 280 kts 180°
2026-05-07 00:39 39.46496 -77.58484 9252 ft 280 kts 179°
2026-05-07 00:39 39.44585 -77.58019 9176 ft 280 kts 179°
2026-05-07 00:39 39.42676 -77.57554 8878 ft 278 kts 179°
2026-05-07 00:40 39.40801 -77.56954 8650 ft 276 kts 174°
2026-05-07 00:40 39.38963 -77.56281 8339 ft 275 kts 173°
2026-05-07 00:40 39.37128 -77.55584 7997 ft 275 kts 173°
2026-05-07 00:40 39.35293 -77.54883 7633 ft 275 kts 172°
2026-05-07 00:41 39.33484 -77.54190 7309 ft 274 kts 171°
2026-05-07 00:41 39.31651 -77.53487 6967 ft 274 kts 171°
2026-05-07 00:41 39.29818 -77.52788 6618 ft 274 kts 171°
2026-05-07 00:41 39.27994 -77.52095 6282 ft 274 kts 171°
2026-05-07 00:42 39.26165 -77.51401 5920 ft 274 kts 170°
2026-05-07 00:42 39.24365 -77.50717 5573 ft 264 kts 170°
2026-05-07 00:42 39.22641 -77.50057 5247 ft 252 kts 170°
2026-05-07 00:42 39.20992 -77.49429 4939 ft 241 kts 171°
2026-05-07 00:43 39.19399 -77.48826 4635 ft 237 kts 171°
2026-05-07 00:43 39.17838 -77.48240 4322 ft 229 kts 171°
2026-05-07 00:43 39.16362 -77.47684 4042 ft 219 kts 170°
2026-05-07 00:43 39.14917 -77.47139 3781 ft 210 kts 170°
2026-05-07 00:44 39.13517 -77.46618 3499 ft 210 kts 170°
2026-05-07 00:44 39.12135 -77.46108 3223 ft 209 kts 167°
2026-05-07 00:44 39.10722 -77.45737 3068 ft 206 kts 181°
2026-05-07 00:44 39.09282 -77.45755 3027 ft 204 kts 184°
2026-05-07 00:45 39.07878 -77.45776 2729 ft 204 kts 183°
2026-05-07 00:45 39.06444 -77.45796 2213 ft 207 kts 182°
2026-05-07 00:45 39.05023 -77.45816 1878 ft 202 kts 182°
2026-05-07 00:45 39.03672 -77.45835 1626 ft 183 kts 182°
2026-05-07 00:46 39.02466 -77.45852 1343 ft 165 kts 182°
2026-05-07 00:46 39.01350 -77.45868 1129 ft 156 kts 181°
2026-05-07 00:46 39.00272 -77.45885 939 ft 152 kts 182°
2026-05-07 00:46 38.99237 -77.45900 743 ft 146 kts 182°
2026-05-07 00:47 38.98232 -77.45915 562 ft 143 kts 182°
2026-05-07 00:47 38.97238 -77.45927 391 ft 142 kts 182°
2026-05-07 00:47 38.96267 -77.45943 304 ft 129 kts 182°
2026-05-07 00:47 38.95601 -77.45951 303 ft 53 kts 181°
2026-05-07 00:48 38.95429 -77.45957 302 ft 18 kts 181°
2026-05-07 00:48 38.95289 -77.45962 304 ft 22 kts 180°
2026-05-07 00:48 38.95120 -77.45958 300 ft 26 kts 173°
2026-05-07 00:48 38.94943 -77.45875 299 ft 27 kts 148°
2026-05-07 00:49 38.94875 -77.45820 300 ft 0 kts 148°
2026-05-07 00:52 38.94852 -77.45803 300 ft 9 kts 149°
2026-05-07 00:52 38.94789 -77.45762 302 ft 11 kts 155°
2026-05-07 00:52 38.94703 -77.45724 301 ft 15 kts 156°
2026-05-07 00:52 38.94662 -77.45609 300 ft 16 kts 89°
2026-05-07 00:53 38.94664 -77.45462 300 ft 12 kts 89°
2026-05-07 00:53 38.94664 -77.45382 300 ft 10 kts 91°
2026-05-07 00:53 38.94650 -77.45350 303 ft 1 kts 138°
2026-05-07 00:53 38.94625 -77.45344 302 ft 7 kts 173°
2026-05-07 00:54 38.94584 -77.45336 300 ft 4 kts 169°
2026-05-07 00:54 38.94582 -77.45335 304 ft 0 kts 169°